TimeEST,TemperatureF,Dew PointF,Humidity,Sea Level PressureIn,VisibilityMPH,Wind Direction,Wind SpeedMPH,Gust SpeedMPH,PrecipitationIn,Events,Conditions,WindDirDegrees,DateUTC
12:15 AM,34.3,32.0,91,30.13,10.0,WSW,6.9,-,N/A,,Overcast,240,2013-12-07 05:15:00
12:35 AM,34.2,32.0,92,30.13,10.0,WSW,4.6,-,N/A,,Overcast,250,2013-12-07 05:35:00
12:55 AM,34.2,32.0,92,30.13,10.0,WSW,5.8,-,N/A,,Overcast,240,2013-12-07 05:55:00
1:15 AM,34.2,32.0,92,30.14,10.0,WSW,5.8,-,N/A,,Overcast,250,2013-12-07 06:15:00
1:35 AM,34.3,32.0,91,30.15,10.0,Calm,Calm,-,N/A,,Overcast,0,2013-12-07 06:35:00
1:55 AM,34.3,32.0,91,30.15,10.0,Calm,Calm,-,N/A,,Overcast,0,2013-12-07 06:55:00
2:15 AM,34.2,32.0,92,30.17,10.0,WSW,4.6,-,N/A,,Overcast,240,2013-12-07 07:15:00
2:35 AM,33.8,31.6,92,30.18,10.0,Calm,Calm,-,N/A,,Overcast,0,2013-12-07 07:35:00
2:55 AM,33.8,31.5,91,30.19,10.0,Calm,Calm,-,N/A,,Overcast,0,2013-12-07 07:55:00
3:15 AM,33.8,31.3,90,30.20,10.0,Calm,Calm,-,N/A,,Overcast,0,2013-12-07 08:15:00
3:35 AM,33.4,31.1,91,30.21,10.0,WSW,3.5,-,N/A,,Overcast,250,2013-12-07 08:35:00
3:55 AM,33.1,30.4,90,30.21,10.0,West,4.6,-,N/A,,Overcast,260,2013-12-07 08:55:00
4:15 AM,32.9,30.0,89,30.21,10.0,West,4.6,-,N/A,,Overcast,270,2013-12-07 09:15:00
4:35 AM,32.0,29.3,90,30.23,10.0,West,5.8,-,N/A,,Overcast,260,2013-12-07 09:35:00
4:55 AM,32.0,29.1,89,30.23,10.0,Calm,Calm,-,N/A,,Overcast,0,2013-12-07 09:55:00
5:15 AM,32.0,28.9,88,30.24,10.0,West,3.5,-,N/A,,Overcast,280,2013-12-07 10:15:00
5:35 AM,32.0,28.9,88,30.25,10.0,West,3.5,-,N/A,,Overcast,270,2013-12-07 10:35:00
5:55 AM,32.0,28.4,87,30.26,10.0,Calm,Calm,-,N/A,,Overcast,0,2013-12-07 10:55:00
6:15 AM,32.0,28.4,87,30.27,10.0,West,3.5,-,N/A,,Mostly Cloudy,280,2013-12-07 11:15:00
6:35 AM,31.8,28.4,87,30.27,10.0,West,3.5,-,N/A,,Overcast,280,2013-12-07 11:35:00
6:55 AM,31.5,28.2,88,30.28,10.0,Calm,Calm,-,N/A,,Mostly Cloudy,0,2013-12-07 11:55:00
7:15 AM,31.1,28.4,90,30.29,10.0,West,4.6,-,N/A,,Scattered Clouds,270,2013-12-07 12:15:00
7:35 AM,30.9,28.2,90,30.30,10.0,West,4.6,-,N/A,,Clear,260,2013-12-07 12:35:00
7:55 AM,30.7,28.2,90,30.31,10.0,Calm,Calm,-,N/A,,Scattered Clouds,0,2013-12-07 12:55:00
8:15 AM,30.9,28.2,90,30.32,10.0,Calm,Calm,-,N/A,,Scattered Clouds,0,2013-12-07 13:15:00
8:35 AM,31.1,28.0,88,30.33,10.0,Calm,Calm,-,N/A,,Mostly Cloudy,0,2013-12-07 13:35:00
8:55 AM,31.5,28.4,88,30.34,10.0,Calm,Calm,-,N/A,,Overcast,0,2013-12-07 13:55:00
9:15 AM,32.0,28.4,87,30.34,10.0,WSW,3.5,-,N/A,,Overcast,250,2013-12-07 14:15:00
9:35 AM,32.0,28.2,86,30.36,10.0,WSW,4.6,-,N/A,,Overcast,250,2013-12-07 14:35:00
9:55 AM,32.0,28.0,85,30.36,10.0,West,6.9,-,N/A,,Overcast,270,2013-12-07 14:55:00
10:15 AM,32.0,27.5,83,30.36,10.0,West,3.5,-,N/A,,Overcast,270,2013-12-07 15:15:00
10:35 AM,32.9,28.2,83,30.37,10.0,West,4.6,-,N/A,,Overcast,260,2013-12-07 15:35:00
10:55 AM,33.4,27.0,77,30.37,10.0,NW,3.5,-,N/A,,Overcast,320,2013-12-07 15:55:00
11:15 AM,33.4,27.3,78,30.37,10.0,WNW,6.9,-,N/A,,Overcast,300,2013-12-07 16:15:00
11:35 AM,33.1,26.8,78,30.36,10.0,WNW,6.9,-,N/A,,Overcast,300,2013-12-07 16:35:00
11:55 AM,32.9,26.4,77,30.36,10.0,NNW,5.8,-,N/A,,Overcast,340,2013-12-07 16:55:00
12:15 PM,33.1,26.8,78,30.36,10.0,NW,5.8,-,N/A,,Overcast,320,2013-12-07 17:15:00
12:35 PM,32.4,25.9,77,30.36,10.0,North,5.8,-,N/A,,Overcast,360,2013-12-07 17:35:00
12:55 PM,32.5,26.1,77,30.36,10.0,NNW,5.8,-,N/A,,Overcast,330,2013-12-07 17:55:00
1:15 PM,32.0,25.7,78,30.36,10.0,NW,5.8,-,N/A,,Overcast,320,2013-12-07 18:15:00
1:35 PM,32.0,25.3,76,30.36,10.0,WNW,4.6,-,N/A,,Overcast,300,2013-12-07 18:35:00
1:55 PM,32.0,25.3,76,30.36,10.0,NNW,4.6,-,N/A,,Overcast,330,2013-12-07 18:55:00
2:15 PM,32.0,25.3,76,30.35,10.0,WNW,5.8,-,N/A,,Overcast,300,2013-12-07 19:15:00
2:35 PM,32.0,25.3,76,30.35,10.0,NW,4.6,-,N/A,,Overcast,320,2013-12-07 19:35:00
2:55 PM,32.4,25.3,75,30.35,10.0,WNW,5.8,-,N/A,,Overcast,300,2013-12-07 19:55:00
3:15 PM,32.2,25.3,76,30.36,10.0,NW,6.9,-,N/A,,Overcast,320,2013-12-07 20:15:00
3:35 PM,32.0,24.8,75,30.36,10.0,NW,5.8,-,N/A,,Overcast,310,2013-12-07 20:35:00
3:55 PM,32.0,24.4,74,30.36,10.0,NW,4.6,-,N/A,,Overcast,310,2013-12-07 20:55:00
4:15 PM,31.6,24.1,74,30.37,10.0,NW,4.6,-,N/A,,Overcast,320,2013-12-07 21:15:00
4:35 PM,31.1,24.3,76,30.37,10.0,NNW,4.6,-,N/A,,Overcast,330,2013-12-07 21:35:00
4:55 PM,30.9,24.4,77,30.38,10.0,NNW,4.6,-,N/A,,Overcast,340,2013-12-07 21:55:00
5:15 PM,30.6,24.3,77,30.38,10.0,North,6.9,-,N/A,,Overcast,10,2013-12-07 22:15:00
5:35 PM,30.2,23.7,77,30.40,10.0,NNW,4.6,-,N/A,,Overcast,340,2013-12-07 22:35:00
5:55 PM,29.7,23.0,76,30.40,10.0,North,4.6,-,N/A,,Overcast,350,2013-12-07 22:55:00
6:15 PM,29.3,23.2,78,30.41,10.0,NNW,4.6,-,N/A,,Overcast,330,2013-12-07 23:15:00
6:35 PM,29.3,23.0,77,30.41,10.0,North,3.5,-,N/A,,Overcast,10,2013-12-07 23:35:00
6:55 PM,29.3,23.0,77,30.42,10.0,NNW,4.6,-,N/A,,Overcast,330,2013-12-07 23:55:00
7:15 PM,29.1,22.6,77,30.43,10.0,NNW,4.6,-,N/A,,Overcast,340,2013-12-08 00:15:00
7:35 PM,29.1,22.3,76,30.44,10.0,North,3.5,-,N/A,,Overcast,360,2013-12-08 00:35:00
7:55 PM,29.1,22.3,76,30.44,10.0,North,4.6,-,N/A,,Overcast,350,2013-12-08 00:55:00
8:15 PM,29.1,22.3,76,30.45,10.0,Calm,Calm,-,N/A,,Overcast,0,2013-12-08 01:15:00
8:35 PM,28.9,22.1,76,30.44,10.0,NNE,4.6,-,N/A,,Overcast,20,2013-12-08 01:35:00
8:55 PM,28.9,22.1,76,30.43,10.0,North,4.6,-,N/A,,Overcast,360,2013-12-08 01:55:00
9:15 PM,28.8,23.0,79,30.43,10.0,Calm,Calm,-,N/A,,Overcast,0,2013-12-08 02:15:00
9:35 PM,29.1,22.8,77,30.43,10.0,NNE,3.5,-,N/A,,Overcast,30,2013-12-08 02:35:00
9:55 PM,28.8,23.0,79,30.43,10.0,NNE,3.5,-,N/A,,Overcast,30,2013-12-08 02:55:00
10:15 PM,28.8,22.3,77,30.43,10.0,North,3.5,-,N/A,,Overcast,10,2013-12-08 03:15:00
10:35 PM,28.4,22.3,78,30.44,10.0,NNE,3.5,-,N/A,,Overcast,20,2013-12-08 03:35:00
10:55 PM,28.8,22.5,77,30.42,10.0,NNE,6.9,-,N/A,,Overcast,20,2013-12-08 03:55:00
11:15 PM,28.4,22.6,79,30.43,10.0,NNE,5.8,-,N/A,,Overcast,30,2013-12-08 04:15:00
11:35 PM,28.6,22.5,78,30.43,10.0,NNE,8.1,-,N/A,,Overcast,20,2013-12-08 04:35:00
11:55 PM,28.4,22.6,79,30.42,10.0,NNE,8.1,-,N/A,,Overcast,20,2013-12-08 04:55:00